Terminal Aerodrome Forecast
Issued by NWS

Home | Current Version | Previous Version | Text Only | Print | Product List | Glossary On
Versions: 1 2 3 4 5 6 7 8 9 10 11 12 13
000
FTUS46 KSTO 201300 AAA
TAFMHR
TAF AMD
KMHR 201344Z 2014/2112 20005KT P6SM SCT015
      TEMPO 2014/2016 BKN015
     FM201600 20010KT P6SM SKC=

USA.gov is the U.S. government's official web portal to all federal, state and local government web resources and services.